Stündliche Wetter Aba

Heute, 22 Juni, Dienstag

Zeit Temperatur Niederschläge Wind Luftdruck Luftfeuchtigkeit
00:00 +23°C° 0 mm 2 m/S 746 mmHg 76%
01:00 +21°C° 0 mm 2 m/S 746 mmHg 79%
02:00 +21°C° 0 mm 2 m/S 746 mmHg 80%
03:00 +20°C° 0 mm 2 m/S 746 mmHg 81%
04:00 +20°C° 0 mm 2 m/S 746 mmHg 82%
05:00 +21°C° 0 mm 2 m/S 746 mmHg 77%
06:00 +24°C° 0 mm 2 m/S 747 mmHg 72%
07:00 +25°C° 0 mm 2 m/S 747 mmHg 67%
08:00 +27°C° 0 mm 2 m/S 747 mmHg 62%
09:00 +29°C° 0 mm 2 m/S 747 mmHg 57%
10:00 +30°C° 0 mm 2 m/S 747 mmHg 52%
11:00 +31°C° 0 mm 3 m/S 747 mmHg 49%
12:00 +33°C° 0 mm 3 m/S 747 mmHg 46%
13:00 +34°C° 0 mm 3 m/S 747 mmHg 42%
14:00 +35°C° 0 mm 3 m/S 747 mmHg 41%
15:00 +35°C° 0 mm 3 m/S 747 mmHg 40%
16:00 +35°C° 0 mm 4 m/S 748 mmHg 39%
17:00 +33°C° 0 mm 3 m/S 748 mmHg 45%
18:00 +31°C° 0 mm 2 m/S 748 mmHg 50%
19:00 +29°C° 0 mm 1 m/S 748 mmHg 55%
20:00 +28°C° 0 mm 1 m/S 748 mmHg 57%
21:00 +27°C° 0 mm 1 m/S 748 mmHg 60%
22:00 +26°C° 0 mm 1 m/S 748 mmHg 62%
23:00 +25°C° 0 mm 1 m/S 749 mmHg 63%

Morgen, 23 Juni, Mittwoch

Zeit Temperatur Niederschläge Wind Luftdruck Luftfeuchtigkeit
00:00 +25°C° 0 mm 1 m/S 749 mmHg 65%
01:00 +24°C° 0 mm 1 m/S 749 mmHg 66%
02:00 +23°C° 0 mm 1 m/S 749 mmHg 66%
03:00 +21°C° 0 mm 2 m/S 749 mmHg 66%
04:00 +21°C° 0 mm 2 m/S 749 mmHg 66%
05:00 +23°C° 0 mm 2 m/S 749 mmHg 65%
06:00 +24°C° 0 mm 2 m/S 750 mmHg 63%
07:00 +26°C° 0 mm 2 m/S 750 mmHg 61%
08:00 +27°C° 0 mm 3 m/S 751 mmHg 58%
09:00 +29°C° 0 mm 3 m/S 751 mmHg 54%
10:00 +32°C° 0 mm 4 m/S 751 mmHg 51%
11:00 +33°C° 0 mm 3 m/S 751 mmHg 47%
12:00 +34°C° 0 mm 3 m/S 751 mmHg 44%
13:00 +35°C° 0 mm 3 m/S 751 mmHg 40%
14:00 +35°C° 0 mm 3 m/S 751 mmHg 40%
15:00 +35°C° 0 mm 3 m/S 751 mmHg 40%
16:00 +35°C° 0 mm 3 m/S 751 mmHg 40%
17:00 +33°C° 0 mm 3 m/S 751 mmHg 48%
18:00 +31°C° 0 mm 3 m/S 751 mmHg 55%
19:00 +29°C° 0 mm 3 m/S 751 mmHg 63%
20:00 +28°C° 0 mm 2 m/S 752 mmHg 66%
21:00 +26°C° 0 mm 2 m/S 752 mmHg 69%
22:00 +25°C° 0 mm 2 m/S 752 mmHg 73%
23:00 +25°C° 0 mm 1 m/S 752 mmHg 74%

übermorgen, 24 Juni, Donnerstag

Zeit Temperatur Niederschläge Wind Luftdruck Luftfeuchtigkeit
00:00 +25°C° 0 mm 1 m/S 752 mmHg 75%
01:00 +24°C° 0 mm 1 m/S 752 mmHg 76%
02:00 +24°C° 0 mm 1 m/S 752 mmHg 77%
03:00 +24°C° 0 mm 1 m/S 752 mmHg 78%
04:00 +23°C° 0 mm 1 m/S 752 mmHg 79%
05:00 +25°C° 0 mm 1 m/S 752 mmHg 73%
06:00 +27°C° 0 mm 1 m/S 752 mmHg 66%
07:00 +29°C° 0 mm 2 m/S 752 mmHg 60%
08:00 +30°C° 0 mm 2 m/S 752 mmHg 54%
09:00 +32°C° 0 mm 2 m/S 752 mmHg 49%
10:00 +35°C° 0 mm 2 m/S 752 mmHg 43%
11:00 +36°C° 0 mm 2 m/S 752 mmHg 40%
12:00 +37°C° 0 mm 2 m/S 751 mmHg 37%
13:00 +38°C° 0 mm 3 m/S 751 mmHg 33%
14:00 +38°C° 0 mm 3 m/S 751 mmHg 31%
15:00 +39°C° 0 mm 2 m/S 751 mmHg 29%
16:00 +39°C° 0 mm 2 m/S 750 mmHg 27%
17:00 +37°C° 0 mm 2 m/S 750 mmHg 33%
18:00 +34°C° 0 mm 1 m/S 750 mmHg 38%
19:00 +33°C° 0 mm 1 m/S 749 mmHg 43%
20:00 +31°C° 0 mm 2 m/S 749 mmHg 46%
21:00 +29°C° 0 mm 3 m/S 749 mmHg 50%
22:00 +28°C° 0 mm 4 m/S 750 mmHg 53%
23:00 +27°C° 0.1 mm 3 m/S 750 mmHg 55%

25 Juni, Freitag

Zeit Temperatur Niederschläge Wind Luftdruck Luftfeuchtigkeit
00:00 +26°C° 0.1 mm 3 m/S 750 mmHg 57%
01:00 +25°C° 0.1 mm 3 m/S 750 mmHg 58%
02:00 +24°C° 0 mm 3 m/S 750 mmHg 66%
03:00 +22°C° 0 mm 3 m/S 751 mmHg 73%
04:00 +21°C° 0 mm 3 m/S 751 mmHg 80%
05:00 +22°C° 0 mm 3 m/S 751 mmHg 76%
06:00 +23°C° 0 mm 4 m/S 752 mmHg 72%
07:00 +25°C° 0 mm 5 m/S 752 mmHg 68%
08:00 +26°C° 0 mm 4 m/S 752 mmHg 62%
09:00 +28°C° 0 mm 4 m/S 752 mmHg 56%
10:00 +29°C° 0 mm 4 m/S 752 mmHg 50%
11:00 +30°C° 0 mm 3 m/S 752 mmHg 47%
12:00 +31°C° 0 mm 3 m/S 752 mmHg 43%
13:00 +33°C° 0 mm 3 m/S 752 mmHg 40%
14:00 +34°C° 0 mm 3 m/S 752 mmHg 39%
15:00 +34°C° 0 mm 3 m/S 751 mmHg 38%
16:00 +34°C° 0 mm 4 m/S 751 mmHg 37%
17:00 +32°C° 0 mm 4 m/S 751 mmHg 43%
18:00 +29°C° 0 mm 4 m/S 751 mmHg 48%
19:00 +27°C° 0 mm 5 m/S 750 mmHg 53%
20:00 +25°C° 0.2 mm 4 m/S 751 mmHg 64%
21:00 +22°C° 0.2 mm 3 m/S 752 mmHg 74%
22:00 +20°C° 0.2 mm 3 m/S 753 mmHg 85%
23:00 +20°C° 0.2 mm 3 m/S 752 mmHg 86%

26 Juni, Samstag

Zeit Temperatur Niederschläge Wind Luftdruck Luftfeuchtigkeit
00:00 +19°C° 0.2 mm 2 m/S 752 mmHg 87%
01:00 +19°C° 0.2 mm 2 m/S 752 mmHg 88%
02:00 +19°C° 1.8 mm 2 m/S 752 mmHg 90%
03:00 +18°C° 1.8 mm 2 m/S 752 mmHg 92%
04:00 +18°C° 1.8 mm 2 m/S 752 mmHg 94%
05:00 +19°C° 0.9 mm 3 m/S 753 mmHg 91%
06:00 +19°C° 0.9 mm 5 m/S 753 mmHg 88%
07:00 +20°C° 0.9 mm 6 m/S 753 mmHg 85%
08:00 +21°C° 0.1 mm 6 m/S 753 mmHg 78%
09:00 +23°C° 0.1 mm 6 m/S 753 mmHg 70%
10:00 +24°C° 0.1 mm 6 m/S 753 mmHg 62%
11:00 +26°C° 0 mm 6 m/S 753 mmHg 59%
12:00 +27°C° 0 mm 5 m/S 753 mmHg 55%
13:00 +28°C° 0 mm 5 m/S 753 mmHg 51%
14:00 +28°C° 0 mm 5 m/S 752 mmHg 50%
15:00 +28°C° 0 mm 5 m/S 752 mmHg 49%
16:00 +28°C° 0 mm 5 m/S 752 mmHg 48%
17:00 +27°C° 0 mm 5 m/S 752 mmHg 52%
18:00 +26°C° 0 mm 4 m/S 752 mmHg 57%
19:00 +25°C° 0 mm 4 m/S 752 mmHg 61%
20:00 +22°C° 0 mm 3 m/S 753 mmHg 65%
21:00 +21°C° 0 mm 3 m/S 753 mmHg 68%
22:00 +20°C° 0 mm 3 m/S 753 mmHg 72%
23:00 +19°C° 0 mm 3 m/S 753 mmHg 75%

27 Juni, Sonntag

Zeit Temperatur Niederschläge Wind Luftdruck Luftfeuchtigkeit
00:00 +19°C° 0 mm 3 m/S 753 mmHg 77%
01:00 +18°C° 0 mm 3 m/S 753 mmHg 80%
02:00 +18°C° 0 mm 3 m/S 753 mmHg 81%
03:00 +17°C° 0 mm 3 m/S 753 mmHg 82%
04:00 +17°C° 0 mm 3 m/S 753 mmHg 83%
05:00 +18°C° 0 mm 3 m/S 754 mmHg 77%
06:00 +20°C° 0 mm 4 m/S 754 mmHg 70%
07:00 +22°C° 0 mm 4 m/S 754 mmHg 64%
08:00 +23°C° 0 mm 4 m/S 754 mmHg 58%
09:00 +26°C° 0 mm 4 m/S 754 mmHg 52%
10:00 +27°C° 0 mm 4 m/S 754 mmHg 46%
11:00 +28°C° 0 mm 4 m/S 754 mmHg 43%
12:00 +29°C° 0 mm 4 m/S 754 mmHg 39%
13:00 +30°C° 0 mm 4 m/S 753 mmHg 36%
14:00 +30°C° 0 mm 4 m/S 753 mmHg 34%
15:00 +32°C° 0 mm 4 m/S 753 mmHg 33%
16:00 +32°C° 0 mm 4 m/S 753 mmHg 32%
17:00 +29°C° 0 mm 3 m/S 753 mmHg 39%
18:00 +27°C° 0 mm 3 m/S 753 mmHg 45%
19:00 +25°C° 0 mm 2 m/S 754 mmHg 52%
20:00 +24°C° 0 mm 2 m/S 754 mmHg 54%
21:00 +23°C° 0 mm 2 m/S 754 mmHg 55%
22:00 +22°C° 0 mm 1 m/S 754 mmHg 56%
23:00 +22°C° 0 mm 1 m/S 754 mmHg 57%
Mehr zeigen

Wir brauchen deine Erlaubnis

Meteoprog und unser Service Anbieter werden persönliche Daten aufbewahren, so wie Cookies, Geräte Bezeichnung oder ähnliche Technologien von deinem Gerät und Prozess, so wie Persönliche Daten Inhalte und Werbungen, genauso wie social Media und den Verkehr zu analysieren.

  • Aufbewahrung und/oder Zugang zu deiner Geräte Informationen.

    Cookies, Geräte Bezeichnung oder andere Informationen, können aufbewahrt oder Zugang zu deinem Gerät erhalten, für den Grund, der oben angegeben wird.

  • Personalisierte Werbung und Inhalte, Messungen, Einblick in das Publikum und Produkt Entwicklung.

    Werbungen und Inhalte können personalisiert werden, basierend auf ein Profil. Mehr Daten können besser personalisierte Werbungen und Inhalte hinzufügen. Werbung und Inhalte können gezeigt und gemessen werden. Einblicke über das Publikum, welche die Werbung gesehen haben und den Inhalt, können abgeleitet werden. So wie Daten können genutzt werden, um es zu verbessern oder die Benutzer Erfahrung zu verbessern das System und die Software.

Wenn du “Ich stimme zu” klickst, erlaubst du uns, die Cookies zu benutzen die Geräte Bezeichnung, den Web oder ähnliche Technologien zu benutzen. Deine Settings, können in deinem Gerät bei deinem Browser geändert werden.

Für den bestimmten Zweck, berechtigten Interessen beruhen darauf, mehr als auf den Inhalt. Du kannst mehr darüber in unseren Privaten und Cookie Politik lesen.